Location: Unspecified
(50.7693°N, 0.0000°E)
Time: 04:53:20
(UTC+00:00)

Transit 4A - Pass Details

Date: 26 June 2019
Orbit: 862 x 982 km, 66.8° (Epoch: 21 July)

Event Time Altitude Azimuth Distance (km) Brightness Sun altitude
Rises 16:49:53 0° 318° (NW) 3,691 11.6 29.3°
Reaches altitude 10° 16:52:46 10° 308° (NW) 2,730 11.3 28.8°
Maximum altitude 16:58:12 31° 250° (WSW) 1,633 10.9 28.0°
Drops below altitude 10° 17:03:32 10° 191° (S) 2,661 10.5 27.1°
Sets 17:06:18 0° 181° (S) 3,582 10.9 26.7°
